Location: *
(42.3442°N, 9.2072°E)
Time: 02:57:07
(UTC+00:00)

STARLINK-1217 - Pass Details

Date: 09 April 2020
Orbit: 378 x 381 km, 53.0° (Epoch: 02 June)

Event Time Altitude Azimuth Distance (km) Brightness Sun altitude
Rises 19:44:37 0° 308° (NW) 2,263 8.4 -19.1°
Reaches altitude 10° 19:46:41 10° 310° (NW) 1,406 6.9 -19.4°
Enters shadow 19:49:37 69° 358° (N) 413 3.0 -19.8°
